Regional Weather Roundup
Issued by NWS

Home | Current Version | Previous Version | Graphics & Text | Print | Product List | Glossary On
Versions: 1 2 3 4 5 6 7 8 9 10 11 12 13 14 15 16 17 18 19 20 21 22 23 24 25 26 27 28 29 30 31 32 33 34 35 36 37 38 39 40 41 42 43 44 45 46 47 48 49 50
000
ASUS43 KBIS 231620
RWRND

NORTH DAKOTA REGIONAL WEATHER ROUNDUP
NATIONAL WEATHER SERVICE BISMARCK ND
1100 AM CDT THU OCT 23 2014

NOTE: "FAIR" INDICATES FEW OR NO CLOUDS BELOW 12,000 FEET WITH NO
SIGNIFICANT WEATHER AND/OR OBSTRUCTIONS TO VISIBILITY.


NDZ001>003-009>011-017-231700-
NORTHWEST NORTH DAKOTA

CITY           SKY/WX    TMP DP  RH WIND       PRES   REMARKS
WILLISTON      MOSUNNY   46  32  58 S9        29.84F
MINOT          SUNNY     54  34  46 SW13      29.83S
MINOT AFB      SUNNY     55  36  47 SW10      29.82F
$$

NDZ018>021-031>035-040>046-231700-
SOUTHWEST NORTH DAKOTA

CITY           SKY/WX    TMP DP  RH WIND       PRES   REMARKS
BISMARCK       SUNNY     53  35  50 SW6       29.91F
DICKINSON      SUNNY     56  32  40 W8        29.88S
GARRISON         N/A     51  39  63 SW7       29.86S
HETTINGER ARPT SUNNY     54  30  40 SW3       29.94S
$$

NDZ004>008-012>016-024-026-027-054-231700-
NORTHEAST NORTH DAKOTA

CITY           SKY/WX    TMP DP  RH WIND       PRES   REMARKS
GRAND FORKS    SUNNY     57  43  59 SW7       29.86S
GRND FRKS AFB  SUNNY     60  43  53 SW12      29.86S
DEVILS LAKE    SUNNY     54  37  54 SW10      29.84F
$$

NDZ022-023-025-028>030-036>039-047>053-231700-
SOUTHEAST NORTH DAKOTA

CITY           SKY/WX    TMP DP  RH WIND       PRES   REMARKS
FARGO          SUNNY     52  42  69 S10       29.92S
JAMESTOWN      SUNNY     56  40  55 SW8       29.90F
$$




USA.gov is the U.S. government's official web portal to all federal, state and local government web resources and services.